Temp
1 1 1 1 2 2 2 2 2 2 2 2 2 3 3 3 3 3 2 3 3 2 3 4 5 5 6 5 5 6 6 6 6 6 7 7 7 8 8 7 9 9 9 9 8 9 9 8 8 9 7 2 4 3
1 1 1 1 1 1 1 1 1 1 1 2 2 3 3 3 3 3 2 3 3 3 3 3 4 5 5 6 6 5 6 5 6 7 6 7 6 6 7 8 8 8 9 8 9 9 4 4 4 3 3 3 2 3
1 1 1 1 1 1 1 1 1 0 1 1 1 2 2 3 3 2 3 2 2 3 2 2 3 5 5 5 5 5 5 6 5 5 6 7 7 7 7 7 7 7 6 7 7 5 4 3 2 3 2 2 0 1
1 1 1 1 1 1 1 1 1 1 1 1 1 2 2 2 3 2 2 3 3 3 2 4 4 4 5 5 4 4 5 6 6 6 6 6 7 6 7 8 6 8 7 6 5 3 3 3 3 3 0 -0 0 0
0 0 0 1 1 1 1 1 1 1 2 2 2 2 2 2 2 2 2 3 3 2 4 3 3 4 4 4 3 3 4 5 5 5 6 6 5 5 5 5 7 6 6 8 9 7 7 5 3 1 -0 -1 -1 -1
0 0 0 1 1 1 1 1 1 1 1 2 2 2 2 2 2 2 1 2 3 3 3 4 3 4 3 4 4 4 5 5 4 4 5 4 6 6 7 7 6 5 5 5 6 4 2 2 1 1 -1 -2 -1 -1
0 0 0 0 0 1 1 1 1 1 1 2 2 2 2 2 2 2 3 4 3 2 2 4 4 3 1 4 4 4 3 3 4 3 4 6 6 7 6 7 4 3 2 2 2 2 0 1 0 -0 -1 -2 -2 -3
-1 -0 -0 0 -0 -0 0 0 1 1 1 2 3 3 2 2 2 2 3 3 2 2 1 4 5 4 2 3 4 4 3 3 3 5 4 7 6 6 7 4 2 1 1 2 2 2 2 1 -0 -1 -2 -2 -2 -3
0 2 2 3 3 1 0 0 1 1 2 3 3 3 2 2 1 2 3 3 2 2 4 3 4 5 2 3 4 4 4 5 4 6 6 6 5 7 6 4 2 2 3 1 1 1 1 0 -1 -2 -2 -2 -2 -3
3 3 3 3 3 2 1 1 1 2 3 2 2 0 2 2 2 3 2 1 2 2 2 4 3 5 4 3 4 5 4 5 7 5 4 6 6 4 3 4 3 2 1 1 0 -0 -0 -0 -1 -1 -1 -1 -2 -2
3 3 2 2 1 2 2 2 2 2 1 1 1 2 2 2 2 2 3 3 3 4 3 3 3 5 4 6 5 4 5 4 6 5 6 5 6 3 2 2 2 1 1 1 2 2 1 0 -1 -1 -2 -2 -2 -3
2 2 2 2 2 2 2 3 2 2 3 3 2 1 0 1 3 4 2 3 4 6 3 4 4 4 4 4 5 4 6 5 6 3 5 5 3 2 2 2 1 1 1 1 1 1 0 -0 -1 -1 -2 -2 -3 -4
2 2 2 2 2 2 2 2 3 4 4 4 3 2 3 2 1 2 1 3 3 3 3 3 4 3 4 3 3 5 4 4 3 3 5 4 2 1 1 1 0 0 -0 -0 -1 -1 -1 -1 -2 -2 -3 -4 -6 -7
3 3 3 2 2 2 2 3 4 4 5 3 3 2 2 0 3 2 3 3 2 1 2 3 2 3 2 2 1 4 2 2 3 4 4 2 2 1 1 1 1 -1 -2 -2 -2 -3 -3 -3 -4 -4 -5 -6 -7 -8
4 4 4 3 3 3 4 5 5 6 3 2 3 1 2 2 2 2 2 3 1 1 2 3 2 3 2 1 1 2 3 3 3 3 2 2 1 0 -1 -1 -3 -4 -5 -5 -5 -5 -5 -5 -5 -6 -6 -6 -7 -8
4 4 4 4 4 4 5 5 5 4 1 2 1 2 1 2 3 3 2 2 1 1 1 2 2 3 2 2 3 2 3 2 1 1 2 1 1 1 -1 -3 -5 -6 -5 -6 -6 -5 -6 -6 -6 -6 -7 -7 -8 -8
5 3 4 4 5 4 4 4 4 1 1 1 0 -1 -1 0 1 1 1 1 0 2 3 3 3 3 2 3 3 2 2 2 1 1 1 1 1 0 -3 -6 -6 -6 -5 -5 -6 -6 -6 -6 -6 -7 -7 -8 -8 -8
4 4 5 5 6 5 4 3 0 1 1 -1 0 -0 -1 -0 0 0 -0 -0 2 3 3 4 2 1 0 2 3 2 1 -0 -0 -1 -1 -1 -1 -1 -2 -3 -5 -4 -5 -6 -6 -6 -7 -7 -6 -6 -7 -8 -8 -9
4 4 5 6 5 4 1 1 1 0 -0 -1 -1 -1 -1 -0 -0 -1 -1 0 1 1 2 2 2 3 3 2 2 1 0 0 -0 -1 -2 -3 -3 -3 -3 -3 -4 -4 -5 -5 -5 -5 -5 -5 -5 -7 -7 -8 -8 -8
4 5 5 5 5 2 1 0 1 1 -1 -1 -2 -1 -0 -0 -1 -1 -0 0 1 2 2 2 2 2 1 1 0 0 -0 -1 -1 -1 -2 -3 -4 -4 -5 -4 -4 -5 -5 -5 -6 -6 -6 -6 -7 -7 -8 -8 -8 -9
5 4 4 5 3 1 -1 -0 -0 -0 -0 -1 -2 -1 -1 -1 -0 -1 0 -0 0 1 1 1 1 -1 -1 -1 -0 -1 -1 -0 -0 -0 -1 -3 -4 -4 -5 -5 -5 -5 -5 -5 -5 -6 -6 -6 -7 -8 -8 -8 -9 -9
3 4 4 3 0 0 -1 -2 -0 -1 -1 -0 -0 -0 -1 -2 -1 -1 -1 -0 0 0 1 -0 0 0 0 1 -0 0 -0 -1 -2 -4 -4 -4 -4 -4 -4 -5 -5 -5 -5 -6 -5 -6 -6 -7 -8 -8 -8 -9 -9 -9
3 3 2 0 -1 -2 -1 -1 -0 0 -1 -1 -1 -0 -1 -2 -2 -0 -2 -1 -1 -1 -1 0 -0 -0 -0 -1 -0 -1 -1 -1 -2 -3 -5 -5 -5 -5 -5 -6 -6 -6 -6 -7 -7 -7 -7 -8 -8 -9 -9 -9 -10 -10
2 -1 -4 -4 -3 -4 -4 -3 1 1 -1 0 -0 -1 -1 -2 -1 -2 -1 -0 -2 -3 -1 -1 -0 -0 -1 -1 -1 -2 -2 -1 -3 -4 -4 -5 -5 -6 -6 -6 -6 -6 -6 -6 -7 -8 -8 -9 -9 -10 -10 -10 -10 -10
-2 -4 -5 -6 -5 -5 -5 -4 -4 -2 -3 -2 -3 -2 1 -1 -3 -4 -0 0 -1 -1 -1 -1 -1 -1 -0 -1 -2 -2 -2 -2 -2 -2 -3 -3 -5 -6 -6 -6 -6 -5 -6 -7 -8 -8 -9 -9 -10 -10 -10 -10 -10 -10
-5 -6 -4 -6 -6 -3 -4 -4 -6 -4 -4 -4 -3 -1 -1 -4 -4 -2 0 -2 -0 -1 -1 -1 -1 -1 -1 -1 -1 -2 -2 -1 -1 -2 -2 -3 -3 -4 -4 -5 -6 -7 -6 -6 -7 -9 -9 -9 -9 -9 -9 -10 -10 -10
-5 -6 -3 -3 -2 -2 -5 -6 -3 -5 -5 -3 -3 -4 -5 -5 -4 -2 -1 -2 -2 -3 -2 -0 -1 -1 -1 -3 -3 -3 -2 -2 -1 -1 -2 -2 -2 -3 -3 -4 -6 -4 -4 -6 -6 -7 -8 -9 -9 -9 -9 -10 -10 -10
-5 -5 -5 -6 -6 -6 -7 -8 -7 -6 -5 -3 -4 -5 -4 -4 -2 -2 -2 -3 -2 -1 -2 -3 -2 -2 -2 -3 -3 -3 -4 -3 -3 -3 -3 -4 -4 -3 -3 -4 -4 -4 -4 -5 -5 -6 -6 -7 -8 -9 -9 -10 -10 -10
-6 -7 -6 -8 -9 -8 -3 -4 -4 -1 -1 -3 -6 -5 -4 -1 -2 -3 -3 -2 -2 -3 -4 -4 -5 -4 -4 -4 -4 -3 -3 -4 -4 -5 -5 -5 -5 -5 -4 -4 -4 -4 -4 -5 -5 -5 -5 -6 -6 -7 -7 -8 -9 -9
-6 -8 -7 -11 -8 -5 -5 -3 -2 -3 -3 -2 -2 -2 -2 -3 -4 -3 -3 -3 -3 -3 -3 -3 -4 -4 -4 -4 -5 -5 -4 -4 -4 -5 -6 -6 -5 -4 -4 -5 -4 -5 -5 -6 -6 -7 -7 -8 -8 -8 -9 -10 -10 -11
-6 -9 -8 -9 -8 -10 -6 -4 -3 -3 -3 -3 -3 -2 -1 -3 -4 -4 -4 -3 -3 -3 -3 -4 -4 -3 -3 -4 -4 -4 -5 -4 -5 -4 -4 -4 -4 -5 -6 -6 -6 -6 -6 -6 -6 -7 -7 -8 -8 -9 -10 -10 -11 -11
-10 -9 -8 -5 -6 -7 -3 -3 -3 -3 -8 -6 -3 -5 -5 -4 -3 -4 -5 -5 -5 -4 -4 -4 -4 -4 -3 -3 -3 -3 -4 -4 -4 -5 -5 -5 -5 -5 -6 -6 -6 -6 -6 -6 -6 -7 -8 -8 -9 -10 -10 -11 -11 -11
-9 -9 -10 -11 -8 -3 -4 -5 -7 -7 -7 -8 -9 -10 -4 -2 -3 -7 -7 -7 -5 -4 -4 -3 -3 -3 -3 -3 -3 -4 -4 -4 -4 -4 -5 -5 -5 -6 -7 -6 -6 -6 -6 -7 -7 -8 -8 -9 -9 -10 -11 -11 -11 -12
Height
658 658 659 660 661 662 663 664 666 667 669 673 678 684 690 696 700 706 713 715 722 730 731 728 727 726 729 730 736 738 740 740 745 745 742 740 742 732 733 732 723 722 727 726 733 733 732 725 732 729 731 744 741 747
656 657 658 659 661 661 663 664 665 666 670 675 680 684 689 694 700 706 712 716 722 726 729 727 726 726 726 726 730 734 732 735 735 734 736 732 736 738 731 725 726 723 716 722 721 717 735 733 735 738 740 742 747 749
653 654 656 657 658 660 660 662 663 666 669 673 678 683 688 694 700 705 709 715 722 726 727 726 721 719 722 724 727 731 732 729 732 732 731 729 725 723 724 725 722 722 726 720 723 728 732 737 740 740 744 744 749 751
650 651 652 653 655 658 659 660 661 658 661 666 674 681 686 692 698 703 707 712 718 723 722 711 709 712 712 716 720 723 725 726 727 729 729 725 723 722 716 715 722 717 721 723 728 737 737 735 735 740 745 747 750 756
646 646 647 648 650 652 654 656 657 658 660 662 667 676 684 690 697 703 708 711 713 718 709 711 708 705 707 710 714 719 723 726 725 728 725 722 721 722 722 724 716 716 717 712 705 711 714 721 731 740 744 749 752 756
640 639 640 641 643 646 648 651 654 656 658 660 665 672 680 688 696 703 709 710 710 714 719 708 703 703 704 706 709 712 715 720 722 722 719 720 713 713 711 710 713 715 715 716 715 721 726 730 736 741 745 751 756 759
631 630 630 631 634 639 644 647 652 655 657 660 664 671 679 687 694 699 699 698 702 712 714 704 697 699 700 700 702 707 710 714 718 718 717 710 709 707 712 705 717 721 722 724 724 727 735 735 738 744 748 754 759 765
618 613 610 610 616 627 636 641 648 654 657 661 666 672 680 688 697 698 694 696 701 710 713 702 693 692 696 695 697 704 708 712 716 710 711 705 708 708 704 716 722 725 727 727 727 726 726 734 741 747 752 758 762 768
603 599 597 597 601 612 623 637 648 655 659 663 668 677 686 691 693 691 694 696 697 702 697 699 692 689 696 695 698 702 705 708 711 706 705 708 711 702 707 714 722 724 724 728 731 732 734 737 743 750 754 759 763 770
608 602 596 597 601 610 624 637 647 655 659 665 672 677 680 683 687 690 696 697 699 693 696 692 696 691 696 699 700 700 702 702 698 708 711 706 705 714 715 714 719 724 726 729 732 738 739 742 745 750 754 759 764 770
617 614 611 611 616 624 633 642 651 656 663 668 672 675 679 681 687 690 689 689 693 689 692 692 692 688 693 690 693 700 700 705 700 707 703 706 704 714 718 719 722 725 728 730 729 729 734 738 744 750 756 761 766 771
630 628 628 630 634 639 645 651 656 660 665 666 667 677 683 685 685 682 692 689 685 680 689 687 689 690 692 692 692 700 698 703 697 715 705 706 715 719 720 723 725 727 729 731 731 732 736 741 746 751 756 762 768 773
644 643 643 644 646 650 654 659 663 663 665 668 670 679 680 685 692 689 699 688 688 686 689 689 691 693 693 694 701 699 704 708 715 712 706 712 717 720 722 724 727 729 731 733 735 737 741 745 749 753 758 764 769 774
654 653 654 655 657 659 662 665 666 665 665 668 671 682 684 693 686 689 684 686 687 689 687 689 694 692 701 702 712 704 718 716 714 712 707 719 718 721 724 726 727 731 734 736 738 741 744 747 752 756 760 764 769 775
661 661 660 662 664 665 666 665 664 663 667 674 677 689 686 688 687 687 687 687 690 691 689 690 696 697 705 709 713 714 714 715 715 714 718 717 720 723 726 728 731 735 737 739 742 745 748 750 754 758 762 766 770 775
668 667 667 668 669 668 668 667 666 668 676 682 687 688 691 688 684 686 688 689 691 690 690 690 698 702 707 708 708 714 711 716 720 720 718 718 721 723 727 730 733 735 737 740 744 747 749 752 756 759 763 767 771 774
672 673 673 671 672 672 671 671 673 680 686 690 696 698 699 696 693 693 693 691 691 689 694 694 701 704 709 708 710 714 716 717 718 719 720 720 721 724 729 733 734 736 739 742 745 748 751 754 757 761 765 769 772 776
677 677 675 674 672 672 673 675 680 686 694 699 698 699 699 697 696 696 695 694 691 691 694 695 703 710 718 712 707 711 718 721 722 723 724 725 725 727 729 732 735 738 741 744 747 750 753 756 759 763 766 769 773 777
680 679 677 675 673 674 679 683 685 695 701 702 701 701 700 700 699 699 697 693 692 693 696 700 705 706 706 710 710 714 717 719 722 726 728 728 728 729 731 734 737 739 742 745 748 751 753 756 758 761 765 769 773 778
682 680 678 677 674 678 686 692 692 696 704 705 705 704 703 702 702 700 698 696 696 698 702 707 709 710 711 714 714 714 715 718 722 726 729 731 731 732 734 735 738 741 744 747 749 751 754 757 759 761 764 767 771 776
683 682 680 679 680 684 693 696 699 701 703 705 706 705 706 704 704 705 703 702 703 706 710 711 712 715 715 715 714 715 717 718 721 723 726 731 733 734 736 738 739 741 743 746 748 751 753 755 758 761 764 767 771 775
685 684 683 683 687 691 697 700 701 703 705 705 705 705 710 711 709 708 707 707 709 711 711 713 713 715 715 715 717 718 720 722 723 725 727 730 733 735 736 737 739 741 743 745 747 749 752 754 757 760 763 767 771 775
687 687 688 689 695 701 706 702 703 703 710 710 708 709 713 714 711 707 713 712 712 713 713 713 714 715 716 717 718 720 722 723 725 727 729 731 732 734 735 737 738 740 742 744 746 749 751 754 757 760 763 767 771 775
690 693 701 704 704 713 709 709 702 703 707 706 708 711 712 715 710 713 712 711 714 714 713 714 714 716 718 719 720 721 722 723 725 728 729 731 733 735 735 737 738 739 741 742 745 748 751 754 756 760 763 767 771 775
702 710 710 718 713 716 719 718 717 711 717 714 717 716 707 711 720 722 710 708 711 712 714 715 716 716 717 719 721 721 722 723 724 726 728 729 731 734 736 737 738 739 740 742 745 747 750 753 756 759 763 766 770 775
717 716 712 719 721 714 716 720 726 721 719 721 717 710 712 721 723 715 706 710 708 710 712 714 715 716 717 718 720 721 722 723 724 725 726 727 728 730 733 735 737 738 738 740 741 745 749 752 755 759 763 767 770 774
719 719 710 708 708 707 717 719 713 719 722 718 717 720 726 728 723 711 708 709 709 711 711 712 713 714 715 718 719 720 721 722 723 724 724 725 727 729 730 731 732 733 734 737 740 742 746 750 754 758 762 766 769 772
712 714 718 718 717 716 722 728 726 722 720 714 718 723 723 719 711 709 708 709 709 711 712 712 713 714 714 716 718 719 721 722 723 724 724 725 726 727 728 729 730 731 732 735 738 741 744 748 752 756 759 763 766 770
714 715 714 724 725 722 713 715 714 709 708 713 721 720 714 706 708 708 709 709 710 712 713 713 714 714 716 717 719 720 721 723 724 726 727 727 728 728 727 728 729 730 732 734 738 741 744 747 750 754 757 761 764 768
716 716 720 732 725 719 714 710 708 710 709 708 708 707 707 707 707 707 707 708 710 711 712 713 714 715 717 718 719 721 721 722 723 723 724 725 725 725 726 727 728 730 732 735 738 741 745 748 751 754 757 760 763 766
714 718 720 724 723 721 713 710 709 708 708 707 706 706 703 705 706 705 706 706 708 709 711 713 714 714 715 716 718 719 720 721 721 722 723 723 723 723 725 726 728 729 732 734 736 739 742 745 748 751 755 758 761 764
720 721 722 717 717 713 708 708 707 707 714 711 704 707 706 705 704 701 700 702 704 706 707 709 710 711 712 714 715 716 717 718 718 720 721 722 722 723 724 726 727 729 731 733 735 738 741 743 746 750 753 756 760 764
720 721 723 724 718 707 708 711 717 717 713 714 713 713 703 700 700 697 697 697 700 701 703 705 706 708 709 711 712 714 715 717 717 718 720 721 722 722 724 726 728 729 731 733 735 738 740 743 746 749 752 756 759 763
Wind_Speed
8 6 6 4 4 4 3 3 4 4 7 10 13 16 20 23 24 22 10 19 10 3 3 3 2 3 3 4 5 3 3 2 4 8 7 5 5 6 3 3 6 9 7 4 3 6 10 9 7 8 1 2 7 12
7 5 6 6 6 7 6 7 8 6 7 10 11 16 19 21 22 19 6 15 17 1 1 3 7 10 3 3 5 5 2 4 4 4 4 3 4 4 3 4 4 6 5 6 8 4 1 1 2 2 2 4 7 12
9 9 9 8 9 10 10 9 13 14 16 17 18 17 18 20 22 20 11 19 11 2 3 3 9 19 17 19 11 4 3 4 5 4 2 2 5 4 6 6 4 3 2 3 3 4 3 4 1 3 2 5 9 12
11 12 12 13 12 11 11 12 15 10 14 26 27 24 21 20 20 22 15 18 17 3 2 4 4 7 15 22 23 17 2 1 1 3 2 3 4 4 4 1 4 2 7 5 2 1 0 7 8 8 8 10 12 13
14 15 15 16 15 15 15 13 11 9 10 14 29 33 28 22 20 20 21 18 24 4 2 2 2 7 8 16 18 18 15 7 2 2 3 4 2 3 1 1 3 5 5 5 5 6 3 1 13 13 13 12 14 16
17 19 20 20 19 16 14 13 11 9 9 10 24 31 29 26 22 15 2 18 22 16 2 3 1 4 6 15 18 14 11 6 3 3 2 2 4 2 4 3 0 0 1 1 1 6 4 9 13 9 13 13 13 14
22 23 25 26 24 21 19 19 16 11 9 11 23 29 28 28 28 8 4 2 32 20 1 3 2 2 5 7 3 3 5 2 2 1 3 3 2 2 2 3 2 2 3 8 12 11 8 10 6 11 14 16 19 19
29 31 34 33 35 33 30 26 20 15 11 15 20 27 28 27 19 14 14 7 28 8 2 3 2 1 2 3 3 3 3 3 4 2 1 1 2 1 3 2 4 4 8 7 2 1 6 12 15 14 19 18 16 15
15 8 5 11 19 25 35 31 25 18 14 20 23 26 24 10 3 8 16 18 18 4 3 1 1 1 2 2 3 2 1 2 1 2 1 1 1 3 1 7 8 9 4 7 8 10 14 15 15 16 16 16 16 15
23 20 17 18 23 30 34 29 28 24 30 28 16 3 2 8 18 21 7 4 4 3 2 2 1 2 2 3 3 3 1 2 2 1 1 0 2 1 3 6 8 8 10 12 13 7 10 12 14 15 15 13 14 16
36 36 35 36 39 39 34 35 34 32 28 4 3 2 13 19 5 2 2 2 1 2 2 1 2 2 0 2 2 1 2 0 2 1 2 1 1 1 3 7 8 7 9 3 0 6 11 14 15 14 13 15 19 21
31 36 41 43 39 36 35 36 32 11 6 8 14 10 6 1 1 2 0 0 2 2 1 3 2 1 1 0 2 1 2 0 2 1 1 1 0 3 6 9 5 7 6 3 4 10 12 14 17 16 16 17 18 20
32 31 28 29 29 29 26 20 15 19 25 8 3 4 2 1 4 4 3 1 1 2 2 2 2 1 1 3 3 2 3 1 1 1 1 0 1 4 6 6 6 6 7 7 9 12 16 16 17 18 16 18 21 21
28 23 21 20 20 22 20 13 7 6 2 3 2 3 2 2 2 1 1 1 0 1 3 2 2 2 1 3 1 3 1 0 2 1 2 0 3 6 5 5 7 5 6 8 8 11 13 15 15 17 20 22 22 19
27 25 23 19 21 14 6 10 11 7 4 3 3 4 3 1 1 1 1 1 1 1 1 3 3 2 2 3 2 3 2 1 2 2 1 1 4 6 5 4 6 6 5 6 8 8 12 15 15 14 17 21 22 23
13 20 20 13 11 8 10 9 8 4 3 3 5 2 2 1 2 2 2 2 1 0 1 3 3 3 2 3 2 1 4 3 1 2 1 2 5 5 4 4 4 6 7 8 11 12 14 15 14 14 17 20 22 26
10 7 12 6 4 3 4 3 4 4 3 3 2 1 0 0 1 1 1 1 1 1 2 2 3 1 2 2 2 2 2 1 1 1 1 2 4 6 6 5 5 9 9 11 11 14 12 16 19 16 14 13 18 20
8 11 11 8 6 3 4 6 3 3 4 2 2 2 1 1 1 2 2 2 0 2 1 2 3 3 2 2 2 2 2 2 3 3 3 3 4 6 8 8 9 10 9 10 11 13 13 14 13 11 14 16 17 18
10 10 11 11 6 4 3 5 5 3 2 1 1 2 1 1 0 2 2 2 2 2 3 2 3 2 2 1 1 2 2 2 2 2 2 4 6 7 8 10 10 8 10 11 11 10 10 11 11 14 15 17 16 17
7 8 8 13 6 4 3 3 3 3 2 1 1 2 1 1 2 2 2 3 2 2 4 3 1 1 1 0 0 0 2 4 4 3 2 3 5 7 7 8 8 9 10 10 9 11 11 9 9 13 15 16 18 18
6 9 8 6 5 8 3 2 3 1 1 2 1 1 1 2 2 3 3 3 3 2 2 1 2 1 1 1 4 5 3 3 2 2 3 3 4 7 8 8 9 9 8 9 9 9 10 10 11 13 16 15 15 18
6 7 4 6 4 3 3 4 2 1 2 0 2 2 2 2 2 2 2 3 2 1 2 2 3 2 2 4 3 7 8 9 7 6 7 11 4 4 5 8 9 7 8 9 9 10 10 11 13 14 16 16 20 20
5 4 4 6 4 4 1 2 2 1 2 1 1 2 2 1 2 2 2 1 1 0 1 2 3 5 5 5 10 10 9 9 4 5 6 2 4 5 6 8 9 9 7 7 9 10 11 13 16 17 18 19 19 19
5 4 4 3 3 1 2 3 1 2 2 1 2 1 0 1 1 2 1 0 1 1 1 3 4 4 4 4 2 2 6 9 9 8 7 7 4 4 6 7 8 9 7 10 11 11 12 13 17 17 18 19 19 20
4 5 4 4 3 4 3 3 3 3 1 0 2 1 2 2 1 0 2 2 2 2 3 3 2 1 2 1 2 4 6 11 7 4 8 8 8 6 4 5 7 8 10 13 11 12 13 15 15 17 18 19 20 20
3 4 3 3 2 2 3 1 2 3 2 1 2 0 2 2 1 3 2 3 2 2 3 3 2 2 2 2 2 2 7 8 8 3 7 11 12 9 6 5 5 7 14 14 18 16 16 16 17 18 17 18 21 21
2 2 1 0 0 2 2 1 1 2 2 3 2 2 2 1 3 2 1 0 1 2 4 4 4 4 3 4 4 5 6 8 6 3 3 9 9 8 9 9 8 6 14 17 18 21 23 21 19 18 17 17 22 25
3 2 3 2 2 1 3 1 1 3 2 1 3 2 5 5 2 1 1 2 8 5 4 4 5 6 7 8 9 10 9 8 8 7 7 6 6 6 6 6 6 6 12 17 18 20 22 24 24 22 21 21 21 22
1 1 2 3 2 2 1 1 1 2 1 2 3 2 2 1 1 2 3 9 8 8 7 7 7 12 14 12 9 9 10 8 4 2 2 1 0 3 6 7 8 9 12 17 16 17 19 21 22 23 22 21 21 20
2 0 3 1 3 2 3 1 0 1 1 1 1 1 0 1 2 4 11 11 10 7 7 6 11 8 7 7 6 4 2 2 3 4 3 3 4 5 9 9 9 11 13 16 16 15 15 15 16 18 18 18 18 19
1 2 3 1 2 3 3 1 1 1 1 1 1 2 2 2 2 7 13 12 12 11 10 8 9 8 8 7 7 5 3 6 8 7 4 3 3 5 9 9 11 14 15 17 18 20 20 19 18 19 20 20 21 22
2 2 3 1 2 3 1 1 1 1 0 0 2 1 0 1 2 3 7 15 13 10 12 12 10 10 15 10 8 7 5 5 8 12 11 5 6 7 10 10 12 13 15 17 18 19 20 20 19 19 19 20 21 21
1 1 1 1 2 1 1 2 3 3 1 2 2 2 2 2 5 3 6 12 15 12 13 14 12 11 9 11 11 9 9 7 5 7 9 6 6 9 12 11 12 13 15 16 16 17 18 17 18 18 19 20 20 19
Wind_Direction
274 241 221 222 240 251 254 240 189 146 146 165 167 171 179 177 174 175 172 181 159 158 268 239 228 147 145 156 175 160 120 159 166 196 202 189 222 210 253 256 202 211 180 205 177 208 248 151 123 192 143 51 154 149
260 257 253 253 254 258 257 261 218 234 229 203 192 189 185 183 180 175 141 179 197 175 254 225 253 245 228 184 188 170 254 155 189 190 204 182 194 182 196 237 203 210 198 181 195 209 348 358 36 57 155 152 157 148
253 255 255 255 258 262 261 263 249 250 237 220 208 198 194 190 191 184 160 172 172 201 268 216 228 238 237 231 205 158 201 194 177 217 180 214 240 173 195 216 210 228 196 159 147 182 215 228 155 142 178 139 148 148
257 258 260 261 260 254 251 258 266 283 228 221 212 203 190 189 190 188 177 180 175 146 235 264 232 218 234 219 215 210 197 95 110 150 227 211 230 206 200 179 205 203 157 164 266 244 208 242 210 165 123 128 128 142
260 262 262 261 258 257 250 251 267 265 224 213 207 198 193 186 187 191 199 197 197 171 220 260 304 230 202 200 200 207 217 227 177 182 206 214 220 183 138 90 233 196 174 185 213 191 193 190 166 151 142 141 141 138
268 269 265 259 256 250 246 237 240 223 233 202 186 188 190 187 181 162 186 229 217 222 236 260 201 198 199 214 206 205 209 193 177 195 204 198 253 173 165 198 219 99 149 14 207 117 72 121 132 144 137 140 141 140
276 268 261 256 249 240 234 230 224 224 217 191 184 186 183 183 175 170 190 233 196 190 228 262 233 185 266 175 157 151 152 135 173 165 233 197 173 139 140 214 147 46 95 113 115 106 95 147 153 138 133 135 131 129
279 276 269 258 244 229 218 219 213 203 205 176 171 177 177 177 175 219 247 271 169 151 199 244 262 281 197 150 130 159 133 145 191 232 198 125 126 115 225 143 119 121 126 127 0 342 153 132 131 132 131 134 133 135
308 312 229 208 198 198 198 200 192 186 172 150 152 151 149 166 157 212 215 168 165 192 182 182 282 313 323 44 59 65 124 159 182 166 115 182 148 214 136 169 164 163 165 130 95 110 129 139 141 143 144 147 143 148
67 68 93 122 141 155 163 167 173 166 149 136 121 113 129 164 129 123 113 168 203 198 174 213 140 165 157 186 153 174 179 114 127 49 80 159 201 12 337 165 161 167 137 134 115 129 142 151 156 158 159 157 154 155
68 77 88 105 118 124 136 145 145 134 133 116 142 99 112 127 91 188 141 162 178 217 171 173 194 134 306 106 117 14 128 108 139 158 217 192 210 133 113 128 136 146 153 115 184 179 175 163 160 158 155 155 155 155
73 76 87 93 104 116 125 132 132 120 166 173 116 96 109 90 200 120 158 177 208 183 151 138 146 133 100 106 101 20 105 94 133 351 128 230 141 129 141 144 123 141 149 92 103 135 140 150 154 150 149 148 148 142
72 80 87 83 91 93 104 116 144 138 125 154 112 100 208 310 67 130 172 245 115 172 172 162 84 45 109 43 67 72 76 125 145 58 220 243 129 148 142 133 117 122 118 112 110 121 130 136 143 143 137 138 136 137
69 85 92 83 98 107 100 83 130 190 176 70 71 68 61 16 84 156 70 113 82 281 144 116 77 64 22 59 5 89 48 190 81 203 225 230 159 155 145 135 131 138 126 127 125 126 128 129 125 131 137 144 140 139
64 72 81 102 126 106 74 27 48 68 57 60 47 51 40 332 225 154 105 107 37 131 153 91 69 73 36 87 33 114 84 183 220 219 222 151 153 152 148 139 136 139 138 135 135 131 130 131 132 130 145 150 149 146
48 63 63 97 131 95 23 13 35 53 54 55 41 60 337 329 52 56 51 77 353 111 98 55 96 63 52 113 99 151 139 207 217 215 272 123 147 147 129 125 148 143 141 134 141 143 142 139 142 142 146 154 156 156
54 41 47 55 69 57 52 67 49 48 63 48 37 75 58 29 47 45 343 333 332 69 78 95 69 78 116 85 86 164 161 168 127 115 63 101 143 135 124 128 133 130 131 141 141 144 141 147 143 139 143 155 158 163
42 24 31 20 356 15 49 40 81 71 68 27 65 344 357 27 350 360 344 325 334 92 89 97 116 66 91 122 160 144 114 93 67 74 67 65 98 122 135 129 134 137 138 144 141 141 147 147 154 160 151 153 146 149
35 29 24 13 25 74 53 26 35 84 56 13 3 350 12 343 325 295 305 345 51 82 105 60 82 94 117 52 82 116 141 143 140 101 69 59 94 115 120 128 137 138 145 152 155 162 166 169 165 159 157 158 155 158
24 24 8 18 35 73 68 24 43 81 89 277 37 23 351 23 313 342 6 23 41 47 53 56 101 73 106 117 325 113 123 130 128 123 94 72 100 121 133 144 147 144 139 141 142 147 145 139 153 160 163 163 155 159
6 10 12 32 49 57 80 22 56 62 120 90 299 52 21 359 22 15 5 346 59 53 104 77 105 98 99 108 90 111 125 131 142 149 149 140 145 137 136 137 144 150 151 157 158 160 162 165 162 162 158 159 158 155
3 4 30 37 65 52 74 14 101 121 68 22 41 48 42 30 359 350 313 55 74 93 137 166 137 140 127 99 93 111 115 114 106 101 104 128 146 156 160 163 159 164 167 172 172 170 167 161 160 158 155 150 152 150
7 20 46 29 66 44 298 351 73 55 94 291 47 53 18 357 266 323 63 102 133 232 155 129 123 133 120 109 118 123 140 134 117 122 138 153 167 175 170 175 182 167 167 177 177 167 163 164 166 158 157 152 149 148
15 47 48 51 54 215 351 15 28 89 51 106 110 136 26 263 345 47 134 133 200 206 157 127 124 112 110 117 124 138 139 144 128 134 151 149 149 180 186 183 186 194 189 173 166 162 162 161 167 159 157 153 154 152
65 333 74 349 336 59 48 17 354 50 126 184 90 254 185 77 63 335 214 171 159 138 140 129 126 145 129 122 137 159 167 164 161 163 177 170 150 135 157 178 190 191 183 167 166 163 162 160 161 161 161 159 158 161
80 292 94 191 278 115 183 127 201 196 136 97 210 349 59 89 103 239 214 184 170 143 170 169 163 172 137 127 155 179 181 182 181 165 194 192 187 176 175 176 186 209 201 199 179 169 166 166 163 162 163 166 164 161
91 272 291 219 143 102 43 11 81 109 156 178 199 116 80 157 242 245 155 146 123 113 112 137 181 178 159 153 148 154 166 175 179 183 201 206 212 213 203 195 205 222 196 193 194 186 176 172 169 170 167 172 179 182
178 140 153 259 57 18 136 82 151 200 221 199 110 174 179 198 233 193 125 119 114 107 113 117 136 153 157 163 157 145 133 137 127 117 118 133 172 186 196 196 195 198 194 191 192 192 189 186 181 180 181 180 185 195
41 322 94 23 15 40 108 144 238 224 47 134 167 229 231 213 129 148 165 139 142 142 119 109 102 124 119 118 119 121 131 139 127 132 179 198 285 204 191 188 187 186 185 185 189 194 195 196 195 196 195 193 195 194
303 87 92 67 121 231 218 278 223 245 245 247 259 259 205 203 196 177 164 161 158 170 174 161 156 148 150 143 137 131 144 227 220 182 178 203 220 198 187 183 178 172 173 179 179 176 185 184 183 186 185 181 181 179
130 71 68 91 225 243 231 250 260 227 233 247 229 226 251 178 228 205 197 193 178 171 176 178 186 191 184 181 188 190 213 219 221 214 206 191 174 187 178 184 180 174 175 178 176 175 175 176 179 178 179 179 180 181
12 138 128 306 285 277 178 223 262 262 253 332 250 276 226 163 236 200 204 193 189 192 200 198 195 208 212 213 210 200 194 198 214 206 209 206 197 177 172 178 178 180 179 179 180 180 182 180 177 179 178 179 180 181
12 57 72 47 359 256 220 98 19 314 286 259 262 220 250 217 237 238 199 202 208 207 208 212 214 210 203 208 215 213 214 208 181 181 189 197 199 184 173 179 179 179 179 177 178 179 179 179 177 177 178 176 177 179